TimeCET,TemperatureF,Dew PointF,Humidity,Sea Level PressureIn,VisibilityMPH,Wind Direction,Wind SpeedMPH,Gust SpeedMPH,PrecipitationIn,Events,Conditions,WindDirDegrees,DateUTC
12:00 AM,26.6,17.6,69,29.68,6.2,North,3.5,-,N/A,,Overcast,350,2013-03-13 23:00:00
1:00 AM,24.8,21.2,86,29.68,6.2,WNW,4.6,-,N/A,,Overcast,300,2013-03-14 00:00:00
2:00 AM,24.8,21.2,86,29.68,6.2,WNW,4.6,-,N/A,,Overcast,300,2013-03-14 01:00:00
3:00 AM,24.8,21.2,86,29.68,6.2,WNW,5.8,-,N/A,,Overcast,290,2013-03-14 02:00:00
4:00 AM,23.0,21.2,93,29.68,6.2,WNW,6.9,-,N/A,,Overcast,290,2013-03-14 03:00:00
5:00 AM,23.0,19.4,86,29.68,5.0,WNW,5.8,-,N/A,Snow,Light Snow,300,2013-03-14 04:00:00
6:00 AM,23.0,19.4,86,29.71,3.7,WNW,5.8,-,N/A,Snow,Light Snow,290,2013-03-14 05:00:00
7:00 AM,23.0,19.4,86,29.71,2.5,WNW,5.8,-,N/A,Snow,Light Snow,290,2013-03-14 06:00:00
8:00 AM,23.0,19.4,86,29.71,3.1,NNE,3.5,-,N/A,Snow,Light Snow,20,2013-03-14 07:00:00
9:00 AM,23.0,15.8,74,29.71,3.1,North,5.8,-,N/A,Snow,Light Snow,360,2013-03-14 08:00:00
10:00 AM,23.0,14.0,68,29.71,3.7,Variable,3.5,-,N/A,,Overcast,0,2013-03-14 09:00:00
10:37 AM,23.0,17.6,80,29.74,2.5,West,5.8,-,N/A,Snow,Light Snow,280,2013-03-14 09:37:00
11:00 AM,24.8,19.4,80,29.74,2.5,West,5.8,-,N/A,Snow,Light Snow,280,2013-03-14 10:00:00
11:17 AM,24.8,17.6,74,29.74,3.1,West,6.9,-,N/A,Snow,Light Snow,280,2013-03-14 10:17:00
12:00 PM,24.8,17.6,74,29.71,4.3,WNW,8.1,-,N/A,Snow,Light Snow,300,2013-03-14 11:00:00
1:00 PM,26.6,15.8,64,29.71,6.2,North,5.8,-,N/A,,Overcast,350,2013-03-14 12:00:00
2:00 PM,28.4,15.8,59,29.71,6.2,NNE,6.9,-,N/A,,Mostly Cloudy,20,2013-03-14 13:00:00
4:00 PM,28.4,14.0,55,29.68,6.2,North,5.8,-,N/A,,Scattered Clouds,360,2013-03-14 15:00:00
5:00 PM,28.4,12.2,51,29.71,-9999.0,NNE,5.8,-,N/A,,Clear,20,2013-03-14 16:00:00
6:00 PM,26.6,10.4,51,29.71,-9999.0,NNE,5.8,-,N/A,,Clear,20,2013-03-14 17:00:00
7:00 PM,26.6,10.4,51,29.74,-9999.0,NNE,5.8,-,N/A,,Clear,20,2013-03-14 18:00:00
8:00 PM,26.6,6.8,43,29.74,-9999.0,North,6.9,-,N/A,,Clear,10,2013-03-14 19:00:00
9:00 PM,26.6,8.6,47,29.74,-9999.0,North,4.6,-,N/A,,Clear,360,2013-03-14 20:00:00
10:00 PM,26.6,8.6,47,29.74,-9999.0,NNE,5.8,-,N/A,,Clear,20,2013-03-14 21:00:00
11:00 PM,24.8,12.2,59,29.74,-9999.0,Variable,2.3,-,N/A,,Clear,0,2013-03-14 22:00:00